Weather History for Alexandria, LA

Change the Weather History Date:

Sunday, February 24, 2013

  Actual Average Record
Temperature  
Mean Temperature 54 °F 54 °F  
Max Temperature 69 °F 65 °F 83 °F (2011)
Min Temperature 38 °F 43 °F 20 °F (1968)
Degree Days  
Heating Degree Days 11 11  
Month to date heating degree days 273 331  
Since 1 July heating degree days 1381 1622  
Growing Degree Days 4 (Base 50)    
Moisture  
Dew Point 42 °F    
Average Humidity 64    
Maximum Humidity 93    
Minimum Humidity 35    
Precipitation  
Precipitation 0.00 in 0.16 in 4.85 in (1985)
Month to date precipitation 4.83 3.84  
Year to date precipitation 15.88 9.06  
Snow  
Snow 0.00 in - 0.00 in ()
Month to date snowfall 0.0  
Since 1 July snowfall 0.0  
Snow Depth 0.00 in    
Sea Level Pressure  
Sea Level Pressure 29.90 in    
Wind  
Wind Speed 6 mph (East)    
Max Wind Speed 14 mph    
Max Gust Speed 20 mph    
Visibility 10 miles    
Events      
T = Trace of Precipitation, MM = Missing Value Source: NWS Daily Summary

Daily Weather History Graph

Daily Weather History Graph

Search for Another Location

Airport:

Trip Planner

Search our weather history database for the weather conditions in past years. The results will help you decide how hot, cold, wet, or windy it might be!

Date:

Astronomy

Feb. 24, 2013 Rise Set
Actual Time 6:42 AM CST 6:04 PM CST
Civil Twilight 6:17 AM CST 6:29 PM CST
Nautical Twilight 5:49 AM CST 6:57 PM CST
Astronomical Twilight 5:21 AM CST 7:25 PM CST
Moon 5:16 PM CST (2/24) 5:38 AM CST (2/24)
Length of Visible Light 12h 11m
Length of Day
11h 22m
Waxing Gibbous, 99% of the Moon is Illuminated
Feb 24
Waxing Gibbous
Feb 25
Full
Mar 4
Last Quarter
Mar 11
New
Mar 19
First Quarter

Hourly Weather History & Observations

Time (CST) Temp. Windchill Dew Point Humidity Pressure Visibility Wind Dir Wind Speed Gust Speed Precip Events Conditions
12:53 AM 44.1 °F - 39.9 °F 85% 29.99 in 10.0 mi Calm Calm - N/A   Clear
1:53 AM 41.0 °F - 39.0 °F 93% 29.99 in 10.0 mi Calm Calm - N/A   Clear
2:53 AM 44.1 °F 42.5 °F 39.9 °F 85% 29.96 in 10.0 mi ENE 3.5 mph - N/A   Clear
3:53 AM 41.0 °F - 39.0 °F 93% 29.96 in 10.0 mi Calm Calm - 0.01 in   Clear
4:53 AM 43.0 °F 38.8 °F 39.0 °F 86% 29.96 in 10.0 mi NE 6.9 mph - N/A   Clear
5:53 AM 42.1 °F - 39.0 °F 89% 29.96 in 10.0 mi Calm Calm - N/A   Clear
6:53 AM 39.9 °F - 37.9 °F 93% 29.99 in 10.0 mi Calm Calm - N/A   Clear
7:53 AM 44.1 °F 42.5 °F 39.0 °F 82% 30.02 in 10.0 mi NNE 3.5 mph - N/A   Clear
8:53 AM 48.9 °F - 39.9 °F 71% 30.02 in 10.0 mi NE 8.1 mph - N/A   Clear
9:53 AM 54.0 °F - 44.1 °F 69% 30.01 in 10.0 mi ESE 10.4 mph - N/A   Clear
10:53 AM 60.1 °F - 44.1 °F 55% 29.99 in 10.0 mi ESE 11.5 mph - N/A   Clear
11:53 AM 62.1 °F - 39.9 °F 44% 29.96 in 10.0 mi ESE 9.2 mph - N/A   Clear
12:53 PM 64.9 °F - 39.0 °F 39% 29.94 in 10.0 mi East 10.4 mph 16.1 mph N/A   Clear
1:53 PM 66.9 °F - 39.9 °F 37% 29.89 in 10.0 mi East 10.4 mph 17.3 mph N/A   Clear
2:53 PM 68.0 °F - 39.9 °F 36% 29.86 in 10.0 mi East 8.1 mph - N/A   Clear
3:53 PM 66.9 °F - 42.1 °F 40% 29.85 in 10.0 mi East 8.1 mph - N/A   Clear
4:53 PM 66.0 °F - 43.0 °F 43% 29.83 in 10.0 mi ENE 6.9 mph - N/A   Clear
5:53 PM 64.0 °F - 44.1 °F 48% 29.81 in 10.0 mi NNE 3.5 mph - N/A   Clear
6:53 PM 62.1 °F - 44.1 °F 52% 29.80 in 10.0 mi NE 5.8 mph - N/A   Partly Cloudy
7:53 PM 60.1 °F - 44.1 °F 55% 29.81 in 10.0 mi East 4.6 mph - N/A   Clear
8:53 PM 60.1 °F - 44.1 °F 55% 29.79 in 10.0 mi ENE 4.6 mph - N/A   Overcast
9:53 PM 59.0 °F - 45.0 °F 60% 29.78 in 10.0 mi ESE 8.1 mph - N/A   Mostly Cloudy
10:53 PM 60.1 °F - 46.0 °F 60% 29.75 in 10.0 mi ENE 3.5 mph - N/A   Overcast
11:22 PM 60.8 °F - 48.2 °F 63% 29.73 in 10.0 mi East 4.6 mph - N/A   Overcast
11:53 PM 61.0 °F - 52.0 °F 72% 29.74 in 10.0 mi ESE 6.9 mph - N/A   Overcast